Location: Old Broadwell Mill Observatory
(33.8015°N, 85.8137°W)
Time: 02:49:55
(UTC-05:00)

Gurwin Techsat 1B - Visible Passes

Search period start: 26 April 2017 00:00
Search period end: 06 May 2017 00:00
Orbit: 811 x 814 km, 98.6° (Epoch: 24 April)

Date Brightness Start Highest point End Pass type
(mag) Time Alt. Az. Time Alt. Az. Time Alt. Az.
26 Apr 11.0 01:45:20 10° NE 01:46:57 17° ENE 01:46:57 17° ENE visible
26 Apr 9.8 03:24:43 10° N 03:28:09 30° NW 03:28:09 30° NW visible
27 Apr 11.4 01:23:54 10° ENE 01:23:56 10° ENE 01:23:56 10° ENE visible
27 Apr 9.6 03:01:36 10° N 03:05:10 40° NNW 03:05:10 40° NNW visible
28 Apr 9.7 02:38:44 10° NNE 02:42:09 41° NNE 02:42:09 41° NNE visible
28 Apr 10.7 04:22:27 10° NW 04:23:14 10° WNW 04:23:22 10° WNW visible
29 Apr 10.1 02:16:06 10° NNE 02:19:10 32° NE 02:19:10 32° NE visible
29 Apr 10.3 03:57:18 10° NNW 04:00:22 18° WNW 04:00:22 18° WNW visible
30 Apr 10.7 01:53:46 10° NE 01:56:10 22° ENE 01:56:10 22° ENE visible
30 Apr 9.9 03:33:40 10° N 03:37:22 27° NW 03:37:22 27° NW visible
01 May 11.1 01:31:58 10° NE 01:33:09 14° ENE 01:33:09 14° ENE visible
01 May 9.4 03:10:26 10° N 03:14:22 41° NW 03:14:22 41° NW visible
02 May 9.3 02:47:28 10° N 02:51:21 50° N 02:51:21 50° N visible
03 May 9.7 02:24:44 10° NNE 02:28:21 42° NE 02:28:21 42° NE visible
03 May 10.5 04:06:35 10° NNW 04:09:22 15° WNW 04:09:34 14° WNW visible
04 May 10.3 02:02:16 10° NNE 02:05:20 28° ENE 02:05:20 28° ENE visible
04 May 10.0 03:42:40 10° NNW 03:46:33 24° WNW 03:46:33 24° WNW visible
05 May 10.8 01:40:13 10° NE 01:42:20 18° ENE 01:42:20 18° ENE visible
05 May 9.4 03:19:18 10° N 03:23:33 37° NW 03:23:33 37° NW visible
